This is the latest recevied weather packets stored in our database for station/object AI4QX-5. If no packets are shown the sender has not sent any weather packets the latest 10 day(s).
| Time | Temp. | Humidity | Pressure | Rain* | Wind** | Luminosity | Snow |
|---|---|---|---|---|---|---|---|
| 1777570800 | 28.33° C | 44% | 1009.6 hPa | 0 mm | - | - | - |
| 1777570200 | 28.33° C | 46% | 1009.5 hPa | 0 mm | - | - | - |
| 1777569600 | 28.33° C | 44% | 1009.6 hPa | 0 mm | - | - | - |
| 1777569000 | 28.33° C | 45% | 1009.9 hPa | 0 mm | - | - | - |
| 1777568400 | 28.33° C | 43% | 1010 hPa | 0 mm | - | - | - |
| 1777567800 | 28.33° C | 43% | 1010.3 hPa | 0 mm | - | - | - |
| 1777567200 | 27.78° C | 46% | 1010.5 hPa | 0 mm | - | - | - |
| 1777566600 | 28.33° C | 46% | 1010.5 hPa | 0 mm | - | - | - |
| 1777566000 | 28.33° C | 50% | 1010.6 hPa | 0 mm | - | - | - |
| 1777565400 | 28.33° C | 50% | 1010.6 hPa | 0 mm | - | - | - |
| 1777564800 | 27.78° C | 50% | 1010.8 hPa | 0 mm | - | - | - |
| 1777564200 | 27.78° C | 51% | 1010.7 hPa | 0 mm | - | - | - |
| 1777563600 | 27.78° C | 51% | 1010.8 hPa | 0 mm | - | - | - |
| 1777563000 | 27.78° C | 51% | 1011.1 hPa | 0 mm | - | - | - |
| 1777562400 | 27.22° C | 52% | 1011.1 hPa | 0 mm | - | - | - |
| 1777561800 | 27.22° C | 51% | 1011.1 hPa | 0 mm | - | - | - |
| 1777561201 | 27.22° C | 52% | 1011.1 hPa | 0 mm | - | - | - |
| 1777560600 | 27.22° C | 52% | 1011 hPa | 0 mm | - | - | - |
| 1777560000 | 27.22° C | 52% | 1011.4 hPa | 0 mm | - | - | - |
| 1777559400 | 26.67° C | 52% | 1011.3 hPa | 0 mm | - | - | - |
| 1777558800 | 26.67° C | 52% | 1011.5 hPa | 0 mm | - | - | - |
| 1777558200 | 26.67° C | 52% | 1011.2 hPa | 0 mm | - | - | - |
| 1777557600 | 26.67° C | 53% | 1011.4 hPa | 0 mm | - | - | - |
| 1777557000 | 26.11° C | 54% | 1011.3 hPa | 0 mm | - | - | - |
| 1777556400 | 26.11° C | 53% | 1011.3 hPa | 0 mm | - | - | - |
* Rain latest hour (hover to see other rain measurements)
** Current wind speed in m/s (hover to see current wind gust speed)